GFSMA_850_dewp_048.txt.gz
Dewpoint
6 6 6 5 5 5 5 5 5 5 5 1 -1 -3 -13 -20 -20 -20 -20 -17 -7 -6 1 3 3 3 2 2 2 1 1 0 1 1 1 0 -0 -1 -6 -10 -14 -17 -16
8 7 7 6 6 6 5 5 5 5 3 0 -1 -6 -17 -18 -20 -20 -17 -13 -9 -5 1 2 1 2 2 2 1 0 0 0 0 -0 0 1 0 -0 -1 -0 -7 -7 -1
7 8 8 7 7 6 5 5 5 4 1 -1 -2 -13 -16 -17 -16 -14 -15 -10 -7 -3 0 1 -0 -0 -2 -1 -1 -2 -1 -1 -2 -1 -1 -1 -1 -2 -1 -1 -1 -1 -1
6 8 9 8 7 6 6 6 5 1 -0 -0 -10 -15 -14 -13 -11 -12 -11 -7 -4 -1 -0 0 -1 -2 -5 -6 -7 -3 -3 -3 -2 -3 -1 -1 -3 -3 -3 -2 -2 -1 -1
6 9 8 7 7 7 6 5 2 0 -0 -7 -12 -12 -12 -11 -10 -11 -11 -11 -10 -7 -6 -5 -7 -8 -8 -9 -9 -9 -5 -4 -4 -4 -4 -4 -4 -4 -4 -3 -3 -2 -2
7 9 8 8 7 7 5 2 1 0 -5 -7 -8 -7 -10 -10 -10 -9 -10 -9 -9 -10 -13 -11 -9 -8 -8 -10 -10 -11 -6 -5 -4 -4 -5 -5 -5 -5 -4 -5 -5 -4 -3
6 7 8 8 7 4 1 1 1 -3 -4 -5 -5 -4 -9 -11 -8 -7 -9 -8 -6 -9 -10 -9 -7 -6 -7 -9 -10 -10 -7 -6 -6 -6 -6 -6 -6 -5 -5 -5 -5 -4 -5
6 7 7 7 4 1 2 1 -1 -2 -2 -2 -3 -4 -7 -10 -7 -7 -7 -5 -5 -7 -6 -5 -5 -6 -6 -7 -8 -9 -10 -11 -10 -7 -7 -6 -6 -5 -5 -5 -5 -5 -5
7 7 6 4 2 3 2 -1 -1 -1 -1 -2 -3 -6 -8 -9 -7 -6 -6 -5 -6 -5 -5 -6 -6 -5 -5 -6 -7 -8 -9 -10 -11 -8 -7 -7 -6 -6 -6 -6 -6 -6 -6
6 6 4 3 3 2 -0 -1 -0 -1 -3 -5 -9 -12 -12 -7 -4 -4 -4 -5 -4 -5 -5 -7 -5 -5 -5 -5 -6 -7 -8 -10 -11 -10 -7 -6 -6 -7 -7 -6 -6 -6 -6
5 4 4 4 3 1 -0 -0 -1 -1 1 -6 -14 -18 -15 -10 -6 -3 -3 -3 -3 -3 -5 -7 -5 -4 -4 -4 -5 -7 -9 -10 -10 -11 -11 -9 -6 -7 -7 -7 -7 -7 -6
5 4 4 3 3 1 0 0 -0 2 -5 -10 -13 -16 -11 -9 -8 -6 -4 -3 -3 -4 -4 -7 -5 -5 -4 -5 -7 -9 -10 -10 -10 -10 -10 -11 -10 -7 -7 -7 -7 -7 -7
5 4 4 3 3 1 2 1 2 -2 -2 -2 -13 -10 -9 -9 -10 -7 -4 -4 -3 -4 -5 -4 -6 -6 -6 -7 -9 -9 -10 -12 -15 -17 -19 -19 -19 -16 -9 -8 -8 -8 -8
4 4 4 4 3 4 3 2 2 -2 -12 -15 -12 -9 -9 -11 -13 -10 -6 -5 -4 -5 -5 -5 -6 -7 -10 -9 -10 -14 -17 -21 -23 -23 -23 -22 -21 -18 -9 -8 -8 -8 -8
5 5 5 4 4 3 2 2 -5 -11 -14 -13 -9 -7 -8 -11 -14 -10 -6 -5 -6 -5 -7 -7 -8 -9 -10 -12 -14 -18 -20 -22 -23 -22 -19 -18 -16 -10 -9 -9 -8 -8 -8
6 6 5 4 3 3 0 -6 -7 -10 -11 -9 -7 -7 -7 -8 -9 -7 -7 -8 -8 -8 -8 -9 -10 -11 -12 -13 -16 -18 -20 -22 -22 -19 -17 -16 -16 -10 -10 -10 -9 -9 -9
6 6 3 3 2 -1 -5 -5 -7 -6 -8 -8 -8 -6 -6 -8 -9 -9 -9 -9 -9 -9 -9 -10 -12 -11 -13 -15 -17 -19 -21 -23 -22 -18 -16 -15 -16 -17 -16 -17 -16 -10 -9
6 4 3 0 -3 -4 -2 -5 -2 -8 -9 -7 -6 -5 -5 -6 -8 -8 -8 -8 -8 -10 -11 -11 -11 -13 -14 -16 -18 -20 -21 -22 -19 -17 -18 -21 -18 -17 -15 -15 -16 -13 -11
2 1 -1 -2 -0 -3 -2 -2 -7 -7 -7 -6 -7 -6 -6 -5 -6 -7 -7 -8 -12 -14 -11 -11 -13 -13 -15 -18 -19 -20 -21 -21 -21 -20 -19 -17 -14 -13 -13 -13 -13 -14 -14
-1 -1 0 -3 -3 -1 -1 -3 -5 -6 -6 -6 -6 -5 -5 -5 -6 -6 -7 -8 -12 -12 -12 -11 -12 -13 -16 -18 -19 -20 -20 -21 -19 -18 -16 -14 -14 -15 -15 -16 -15 -14 -14
0 -3 -5 -1 -1 -1 -2 -6 -6 -7 -6 -6 -6 -6 -5 -5 -5 -5 -6 -7 -9 -11 -11 -11 -12 -13 -17 -19 -19 -20 -20 -20 -19 -17 -15 -15 -16 -17 -17 -15 -14 -15 -13
-2 -3 -0 -0 -1 -3 -7 -6 -6 -7 -6 -6 -6 -6 -6 -5 -5 -5 -6 -7 -7 -10 -10 -11 -11 -13 -17 -19 -19 -19 -19 -16 -13 -15 -15 -16 -15 -16 -13 -11 -11 -12 -13
-1 0 -0 -2 -5 -7 -7 -8 -8 -8 -8 -7 -6 -6 -6 -5 -5 -5 -6 -6 -8 -10 -10 -11 -11 -14 -17 -18 -17 -18 -17 -16 -13 -16 -15 -16 -16 -15 -14 -13 -12 -13 -13
-0 -2 -6 -8 -8 -10 -9 -9 -10 -9 -9 -8 -6 -6 -6 -5 -5 -6 -6 -7 -9 -10 -10 -10 -12 -15 -18 -17 -16 -16 -16 -16 -17 -17 -17 -17 -15 -15 -16 -15 -13 -12 -12
-9 -9 -10 -11 -11 -13 -13 -12 -11 -10 -9 -8 -6 -6 -5 -5 -5 -6 -6 -8 -10 -11 -10 -11 -13 -17 -16 -16 -15 -14 -15 -16 -16 -16 -17 -13 -16 -14 -15 -16 -14 -13 -12
-11 -13 -14 -15 -15 -15 -13 -12 -11 -9 -8 -9 -6 -5 -5 -6 -6 -6 -7 -8 -9 -11 -11 -12 -16 -16 -15 -15 -14 -14 -14 -15 -15 -16 -16 -14 -13 -13 -13 -15 -14 -14 -12

GFSMA_850_dewp_051.txt.gz
Dewpoint
-1 2 4 4 4 5 5 5 5 5 5 4 -1 -3 -9 -17 -18 -20 -21 -18 -12 -5 1 3 3 3 3 2 2 1 1 1 1 0 1 1 1 -0 -1 -0 -13 -21 -18
5 6 6 6 6 6 6 5 5 5 5 2 -1 -3 -13 -17 -19 -20 -20 -18 -12 -5 1 -0 1 2 2 2 0 -2 -1 -0 -1 -1 -1 -0 -0 -1 -0 -0 -2 -5 -5
8 7 7 7 7 6 6 5 5 5 3 -0 -1 -9 -16 -18 -19 -17 -18 -13 -7 -5 -3 -1 -0 -0 -1 -2 -4 -3 -1 -2 -2 -1 -2 0 -1 -4 -1 -2 -2 -2 -1
6 7 8 8 7 7 6 5 5 5 0 -0 -6 -13 -15 -17 -15 -13 -14 -10 -7 -2 -0 0 -0 -1 -4 -7 -7 -4 -4 -3 -3 -3 -2 -3 -3 -3 -3 -3 -3 -4 -3
6 6 6 8 7 6 6 6 5 1 0 -3 -9 -11 -11 -13 -12 -11 -11 -12 -10 -11 -10 -9 -8 -9 -10 -9 -9 -7 -4 -3 -3 -2 -3 -3 -3 -3 -4 -4 -4 -4 -3
5 4 7 8 7 7 7 6 3 1 -1 -5 -6 -5 -7 -9 -9 -8 -9 -11 -9 -8 -12 -12 -11 -11 -9 -8 -8 -8 -6 -4 -3 -3 -4 -4 -4 -4 -4 -4 -4 -4 -4
4 5 7 8 8 7 6 4 1 1 -2 -2 -2 -2 -5 -8 -8 -8 -8 -8 -8 -7 -9 -8 -7 -7 -7 -7 -6 -7 -7 -4 -4 -5 -5 -5 -5 -5 -4 -4 -4 -4 -4
4 5 7 8 7 7 5 2 2 -2 -1 -1 -2 -4 -2 -4 -9 -9 -8 -7 -6 -6 -7 -6 -8 -7 -6 -5 -5 -5 -6 -8 -9 -8 -5 -5 -5 -5 -5 -5 -5 -5 -4
5 6 7 8 7 5 2 2 1 -1 -1 -2 -3 -2 -3 -5 -7 -7 -10 -9 -6 -6 -6 -5 -6 -6 -5 -4 -5 -6 -6 -7 -8 -9 -6 -5 -5 -5 -5 -5 -5 -5 -5
6 6 8 7 5 3 2 2 -1 -0 -0 0 -0 -5 -12 -15 -7 -7 -6 -7 -7 -5 -4 -4 -5 -6 -5 -4 -5 -5 -5 -6 -9 -9 -9 -6 -5 -5 -5 -5 -5 -6 -6
6 7 7 5 4 3 3 1 -0 -0 2 1 -3 -8 -9 -13 -14 -7 -7 -6 -4 -4 -3 -4 -5 -5 -6 -4 -4 -4 -6 -9 -9 -10 -10 -10 -6 -5 -5 -6 -6 -6 -6
7 7 5 5 4 3 2 1 1 3 1 3 0 -2 -9 -9 -7 -5 -6 -5 -4 -4 -3 -4 -8 -7 -6 -5 -5 -6 -8 -9 -10 -13 -15 -18 -19 -16 -10 -8 -7 -7 -7
7 6 5 4 3 3 4 3 3 1 3 0 -7 -10 -15 -12 -11 -12 -5 -5 -4 -5 -5 -5 -6 -8 -7 -7 -8 -10 -10 -12 -18 -22 -24 -25 -25 -25 -20 -9 -8 -8 -7
8 6 5 4 3 4 4 2 2 2 -2 -9 -16 -16 -14 -11 -10 -12 -4 -4 -5 -6 -6 -5 -5 -8 -11 -10 -11 -12 -15 -19 -23 -25 -25 -25 -24 -22 -17 -9 -8 -8 -8
8 6 5 4 4 5 1 2 2 -3 -10 -12 -10 -8 -8 -7 -8 -10 -13 -5 -4 -5 -8 -9 -7 -7 -10 -10 -11 -14 -18 -22 -24 -24 -23 -23 -22 -20 -19 -12 -9 -8 -8
7 6 5 4 4 1 2 2 -6 -7 -6 -3 -6 -8 -7 -7 -9 -9 -9 -5 -5 -6 -7 -9 -8 -8 -10 -11 -13 -16 -20 -23 -23 -22 -22 -22 -20 -19 -17 -11 -10 -10 -9
7 7 5 4 3 2 1 -5 -4 -1 -1 -8 -9 -7 -7 -6 -6 -7 -8 -8 -6 -6 -6 -8 -9 -10 -13 -13 -13 -16 -20 -21 -21 -21 -21 -21 -20 -20 -20 -21 -18 -12 -10
7 7 4 3 3 2 -3 -1 1 -2 -8 -8 -7 -6 -7 -6 -6 -6 -6 -7 -7 -7 -8 -9 -10 -10 -11 -13 -15 -19 -20 -21 -20 -20 -20 -21 -20 -19 -18 -15 -14 -14 -13
7 5 3 3 0 -2 1 -0 -1 -4 -5 -6 -6 -6 -6 -5 -5 -6 -6 -6 -6 -7 -9 -10 -10 -10 -11 -11 -13 -14 -17 -19 -18 -20 -20 -19 -15 -16 -13 -14 -14 -15 -15
5 3 1 0 0 1 -0 -0 -1 -4 -6 -6 -6 -6 -6 -6 -6 -5 -5 -6 -6 -6 -8 -9 -9 -11 -10 -11 -12 -14 -15 -14 -14 -19 -17 -14 -15 -15 -16 -16 -16 -16 -17
1 0 0 0 1 -0 -0 -1 -3 -6 -6 -7 -7 -6 -6 -6 -6 -5 -5 -5 -5 -6 -9 -8 -9 -10 -11 -11 -13 -15 -14 -14 -14 -12 -11 -11 -12 -11 -11 -14 -13 -12 -11
-0 -0 0 0 -1 -1 -1 -5 -6 -6 -6 -6 -7 -8 -8 -6 -6 -6 -5 -5 -5 -7 -8 -7 -9 -10 -11 -11 -12 -13 -13 -12 -13 -12 -12 -12 -12 -12 -12 -13 -14 -13 -13
-0 -0 -0 -1 -1 -3 -6 -7 -8 -7 -7 -7 -9 -8 -8 -6 -6 -6 -6 -5 -5 -7 -7 -8 -8 -9 -9 -10 -14 -13 -12 -12 -12 -12 -12 -12 -12 -12 -10 -13 -16 -13 -12
-0 -0 -4 -7 -8 -10 -9 -9 -9 -9 -9 -11 -11 -10 -9 -7 -6 -6 -5 -5 -6 -7 -8 -10 -11 -10 -10 -12 -17 -13 -11 -12 -12 -12 -13 -12 -12 -11 -11 -16 -17 -13 -12
-9 -9 -10 -10 -11 -12 -13 -12 -11 -11 -11 -12 -11 -10 -9 -7 -6 -6 -5 -6 -6 -6 -8 -10 -11 -11 -12 -15 -17 -12 -11 -11 -12 -12 -13 -11 -12 -12 -11 -11 -11 -15 -15
-11 -13 -15 -15 -15 -15 -15 -15 -14 -12 -12 -12 -12 -10 -9 -8 -6 -6 -6 -6 -6 -7 -8 -9 -11 -12 -13 -16 -16 -15 -12 -11 -12 -12 -14 -12 -12 -12 -12 -12 -10 -10 -12

GFSMA_850_dewp_054.txt.gz
Dewpoint
-1 2 5 5 5 4 5 5 5 5 4 4 -1 -2 -8 -14 -16 -5 -1 -15 -11 -1 2 2 -1 -0 0 1 0 -0 1 1 -1 -0 0 1 1 0 -0 -0 -7 -18 -21
-2 0 2 4 5 5 5 5 5 5 4 3 -1 -3 -12 -15 -15 -9 -1 -4 -11 -4 1 0 3 3 3 2 0 -2 -2 -1 -1 -1 -1 0 0 -2 -1 -1 -1 -8 -8
2 4 5 6 6 6 6 6 5 5 5 1 -1 -6 -11 -13 -13 -13 -3 -1 -0 -6 -6 -3 -2 -1 0 -0 -2 -4 -2 -2 -2 -2 -2 -1 -2 -2 -2 -2 -2 -2 -2
6 6 7 7 7 7 7 6 5 4 4 -0 -3 -6 -8 -9 -13 -15 -2 -1 -1 -1 -0 -0 -1 -1 -1 -3 -7 -3 -3 -3 -2 -2 -2 -2 -2 -2 -2 -2 -3 -3 -3
7 7 7 7 7 8 7 6 5 4 2 -0 -2 -2 -4 -5 -6 -7 -7 -4 -6 -5 -7 -5 -10 -10 -11 -12 -11 -9 -5 -3 -2 -2 -2 -2 -2 -2 -2 -3 -3 -3 -3
7 7 6 7 8 7 6 5 5 5 1 -1 -3 -2 -1 -2 -3 -4 -4 -6 -5 -4 -5 -7 -6 -6 -6 -9 -9 -8 -7 -3 -2 -2 -2 -3 -3 -3 -3 -3 -3 -3 -3
6 7 7 7 8 7 6 6 5 2 1 -1 0 1 1 0 -1 -3 -3 -5 -5 -4 -4 -6 -6 -6 -7 -7 -7 -7 -7 -4 -3 -3 -3 -3 -4 -4 -4 -4 -4 -3 -3
7 7 6 7 8 8 7 6 4 2 2 -1 1 1 1 0 -1 -2 -3 -3 -3 -3 -5 -5 -5 -5 -5 -6 -6 -6 -5 -6 -7 -6 -4 -3 -4 -4 -4 -4 -4 -4 -4
7 6 6 7 7 7 7 6 3 2 2 1 0 1 1 -0 -3 -3 -2 -2 -3 -3 -4 -6 -4 -3 -4 -4 -4 -4 -4 -6 -5 -6 -7 -4 -4 -4 -4 -4 -4 -5 -4
8 6 6 7 7 7 7 5 2 2 1 1 2 1 1 -2 -2 -3 -4 -3 -2 -2 -4 -3 -3 -3 -3 -4 -4 -5 -5 -5 -5 -6 -9 -9 -5 -5 -5 -5 -5 -5 -4
8 6 6 7 8 7 6 3 2 2 0 1 3 1 -1 -1 -1 -2 -5 -8 -8 -6 -4 -3 -3 -4 -4 -4 -5 -5 -4 -5 -6 -8 -9 -10 -13 -8 -7 -6 -6 -6 -6
9 7 7 7 7 6 5 3 3 2 1 3 2 2 -1 -3 -5 -7 -7 -7 -7 -6 -5 -4 -5 -5 -5 -5 -5 -7 -7 -8 -10 -11 -13 -19 -22 -22 -12 -8 -7 -7 -7
9 8 7 7 6 5 4 3 3 2 2 2 2 -1 -9 -5 -6 -6 -6 -6 -7 -7 -6 -6 -6 -6 -6 -6 -6 -7 -11 -14 -17 -19 -21 -24 -26 -26 -26 -21 -11 -7 -7
9 8 7 7 6 5 4 3 2 2 2 2 -2 -15 -6 -4 -4 -5 -6 -7 -6 -6 -7 -8 -8 -7 -7 -7 -7 -9 -10 -11 -15 -24 -26 -27 -27 -25 -24 -24 -17 -8 -8
9 8 8 7 6 5 3 4 3 2 1 -10 -6 -0 -3 -3 -4 -5 -5 -5 -6 -5 -7 -10 -9 -9 -8 -8 -8 -9 -9 -11 -17 -25 -27 -26 -24 -23 -22 -21 -10 -8 -8
9 9 8 7 6 4 3 3 2 2 -1 -0 0 -1 -3 -4 -4 -5 -5 -5 -6 -6 -7 -9 -10 -9 -8 -9 -9 -10 -10 -11 -15 -21 -26 -24 -22 -22 -21 -20 -14 -10 -10
9 8 7 7 6 4 3 2 2 0 0 0 -1 -3 -3 -4 -4 -5 -5 -5 -6 -7 -7 -9 -9 -10 -9 -8 -9 -10 -10 -11 -14 -16 -17 -22 -21 -21 -21 -21 -20 -17 -10
8 8 8 7 5 3 2 2 -0 0 -0 -1 -2 -3 -3 -4 -4 -4 -5 -5 -6 -7 -7 -8 -9 -9 -10 -10 -9 -9 -10 -13 -14 -14 -15 -21 -20 -20 -21 -19 -18 -17 -14
8 7 7 5 4 3 2 0 1 -0 -0 -1 -1 -3 -4 -4 -4 -5 -5 -6 -6 -7 -8 -8 -9 -9 -10 -10 -10 -10 -11 -13 -14 -15 -16 -15 -14 -18 -20 -16 -17 -17 -17
7 7 5 3 2 2 1 0 0 -1 -1 -1 -2 -3 -4 -4 -5 -5 -6 -6 -6 -6 -7 -7 -8 -9 -10 -10 -9 -11 -13 -16 -15 -15 -14 -13 -12 -12 -12 -12 -14 -17 -17
5 3 2 1 0 1 1 0 -1 -1 -1 -1 -3 -3 -4 -4 -4 -5 -6 -7 -6 -5 -6 -7 -6 -8 -8 -9 -9 -12 -12 -15 -14 -13 -13 -13 -13 -13 -12 -12 -11 -11 -10
2 1 1 0 1 1 0 -0 -1 -2 -3 -3 -4 -4 -5 -5 -5 -6 -8 -6 -6 -6 -5 -5 -6 -7 -8 -8 -11 -11 -13 -15 -14 -13 -13 -13 -13 -12 -12 -12 -12 -11 -13
-0 0 0 0 0 -0 -1 -4 -6 -7 -5 -5 -5 -5 -6 -7 -7 -5 -5 -6 -6 -6 -6 -5 -6 -7 -7 -9 -10 -11 -13 -14 -13 -13 -12 -13 -13 -12 -12 -12 -11 -11 -14
0 0 -0 -1 -2 -2 -6 -9 -9 -10 -7 -6 -6 -6 -6 -6 -7 -6 -5 -5 -5 -5 -5 -6 -7 -7 -8 -9 -10 -11 -12 -11 -11 -12 -13 -13 -12 -12 -12 -11 -11 -11 -13
-1 -2 -3 -4 -5 -6 -10 -15 -14 -14 -8 -7 -7 -7 -7 -7 -7 -6 -5 -5 -5 -5 -5 -6 -7 -7 -9 -10 -11 -10 -11 -11 -11 -12 -13 -13 -13 -12 -12 -12 -11 -9 -10
-8 -10 -10 -11 -13 -13 -9 -12 -12 -10 -9 -6 -5 -6 -6 -7 -6 -8 -7 -7 -5 -5 -5 -6 -7 -8 -9 -10 -12 -13 -11 -11 -12 -12 -13 -13 -12 -13 -12 -12 -11 -11 -9

GFSMA_850_dewp_057.txt.gz
Dewpoint
6 5 7 7 6 6 5 5 5 5 4 3 -2 -2 -6 -7 -6 -3 1 -15 -17 -5 2 4 3 2 1 -0 -1 -2 -2 -0 -2 -0 0 0 1 -0 -3 -2 -4 -14 -21
6 7 8 7 7 6 6 5 5 5 3 3 -1 -3 -6 -6 -7 -4 -1 -0 -15 -2 0 0 2 3 2 1 -0 -1 -3 -3 -2 -1 -1 0 -0 -1 -1 -1 -1 -2 -13
8 7 7 7 7 6 6 6 5 5 3 1 0 -2 -3 -4 -4 -2 -2 1 1 -7 -8 -8 -5 -3 -1 -0 -1 -2 -2 -1 -2 -1 -1 -1 -1 -1 -1 -1 -1 -2 -2
3 4 8 7 6 6 6 6 5 5 4 2 0 -2 -2 -3 -4 -4 -1 -1 0 1 0 -1 -2 -1 -2 -3 -3 -6 -4 -3 -2 -1 -1 -0 -1 -1 -1 -1 -1 -2 -2
3 5 7 8 8 8 7 6 5 5 4 2 -0 -0 0 -1 -2 -4 -3 -0 -1 -5 -5 -5 -6 -8 -11 -11 -12 -13 -7 -3 -2 -1 -1 -1 -1 -2 -2 -2 -2 -2 -2
9 7 8 9 9 8 8 7 6 5 4 2 -2 -2 2 1 -0 -1 -2 -3 -4 -3 -3 -4 -5 -5 -5 -6 -7 -8 -11 -4 -3 -1 -1 -2 -2 -2 -2 -2 -3 -3 -3
9 9 9 9 8 7 7 7 6 5 4 2 2 2 2 2 2 -0 -2 -2 -3 -3 -3 -3 -4 -5 -5 -6 -5 -5 -5 -7 -7 -2 -2 -2 -2 -2 -3 -3 -3 -3 -3
9 9 9 9 8 7 7 7 6 5 4 3 2 2 3 2 1 1 -1 -1 -1 -2 -2 -4 -4 -4 -3 -4 -4 -5 -4 -5 -7 -8 -5 -3 -3 -3 -3 -3 -3 -3 -3
7 7 8 9 8 7 7 7 6 5 4 3 3 3 3 2 1 -0 -0 -1 -1 -1 -2 -2 -4 -3 -3 -3 -3 -3 -4 -4 -5 -7 -6 -6 -4 -3 -4 -4 -4 -4 -4
3 6 8 9 8 8 7 7 6 6 5 3 3 3 3 2 1 0 -1 -1 -1 -2 -1 -2 -3 -2 -2 -3 -3 -4 -4 -5 -6 -7 -7 -7 -7 -7 -5 -5 -5 -5 -5
5 8 8 8 8 8 7 7 6 5 4 4 3 2 3 1 1 1 -0 -2 -5 -6 -5 -4 -3 -2 -3 -4 -4 -4 -5 -5 -6 -7 -9 -11 -13 -15 -11 -8 -7 -6 -6
7 7 9 8 8 7 7 7 6 5 4 3 2 1 2 1 0 -1 -3 -5 -5 -5 -5 -5 -4 -4 -4 -5 -5 -5 -6 -7 -9 -14 -18 -20 -23 -23 -23 -13 -7 -7 -7
10 9 8 8 8 8 7 6 6 5 3 2 1 2 2 0 -1 -3 -4 -4 -4 -5 -6 -5 -5 -5 -6 -6 -6 -6 -7 -7 -8 -12 -15 -21 -23 -26 -28 -25 -14 -8 -7
9 9 9 9 7 6 6 6 5 4 3 2 2 2 -0 -1 -2 -3 -3 -4 -5 -5 -5 -5 -7 -7 -7 -7 -7 -7 -7 -7 -8 -9 -12 -19 -24 -28 -26 -25 -21 -11 -8
9 8 9 9 8 6 6 6 5 3 2 2 2 1 1 0 -2 -2 -3 -4 -5 -4 -5 -7 -8 -9 -8 -8 -7 -7 -7 -8 -9 -9 -13 -17 -24 -27 -24 -23 -23 -21 -9
8 8 9 9 8 6 6 6 4 3 2 2 2 1 -1 -0 -1 -3 -3 -4 -4 -5 -6 -7 -8 -9 -8 -9 -8 -9 -8 -9 -9 -10 -11 -14 -17 -21 -22 -23 -21 -21 -14
9 9 9 8 7 7 6 5 3 3 2 2 1 0 0 -1 -2 -3 -3 -4 -5 -5 -6 -7 -8 -8 -9 -8 -8 -8 -8 -8 -9 -10 -13 -15 -15 -17 -20 -21 -20 -21 -19
9 9 8 8 7 6 5 4 3 2 1 1 -0 0 -0 -1 -2 -3 -3 -4 -5 -6 -6 -7 -8 -8 -9 -9 -9 -9 -8 -10 -10 -11 -12 -14 -16 -16 -16 -16 -17 -18 -17
8 8 8 7 6 4 3 2 1 1 1 0 0 0 -0 -1 -2 -2 -3 -4 -5 -6 -7 -7 -7 -8 -8 -9 -9 -9 -8 -9 -10 -12 -16 -16 -16 -14 -13 -12 -12 -12 -13
7 7 7 6 4 3 2 1 1 1 0 -0 -0 -0 -1 -1 -2 -3 -4 -5 -5 -6 -6 -6 -6 -7 -7 -8 -9 -9 -8 -10 -10 -13 -15 -14 -13 -13 -12 -12 -12 -12 -12
6 6 5 4 2 1 1 1 1 1 -0 -1 -1 -1 -2 -3 -3 -4 -4 -5 -6 -6 -7 -7 -6 -6 -7 -7 -7 -8 -7 -9 -11 -12 -14 -13 -13 -12 -13 -13 -12 -12 -10
5 4 3 2 2 1 1 1 -0 -0 -1 -1 -3 -4 -4 -5 -5 -5 -5 -5 -5 -5 -6 -6 -6 -6 -6 -5 -6 -7 -7 -9 -11 -13 -13 -12 -12 -12 -12 -12 -12 -12 -12
1 1 1 1 1 0 -2 -2 -4 -6 -6 -5 -5 -5 -5 -6 -7 -7 -7 -7 -7 -6 -6 -6 -6 -6 -6 -5 -6 -7 -7 -9 -10 -13 -12 -12 -12 -12 -11 -12 -12 -12 -11
0 -0 -0 -2 -2 -2 -3 -4 -7 -10 -10 -7 -7 -7 -7 -7 -7 -7 -7 -6 -6 -6 -6 -5 -5 -7 -6 -6 -6 -6 -8 -9 -10 -11 -11 -11 -12 -12 -11 -12 -12 -11 -11
-0 -1 -2 -3 -4 -5 -5 -6 -11 -12 -11 -9 -6 -6 -6 -6 -6 -7 -7 -7 -7 -6 -7 -7 -6 -5 -5 -6 -8 -7 -8 -9 -10 -11 -12 -12 -12 -12 -12 -12 -12 -12 -10
-5 -6 -6 -6 -6 -6 -4 -5 -9 -14 -25 -26 -19 -15 -17 -16 -14 -11 -8 -6 -6 -6 -7 -7 -5 -6 -6 -7 -7 -6 -8 -9 -10 -11 -12 -11 -12 -11 -12 -12 -11 -12 -11

GFSMA_850_dewp_060.txt.gz
Dewpoint
2 2 2 3 4 5 5 6 5 5 4 2 -2 -3 -3 -5 -4 -2 0 -3 -16 -12 -4 -0 -3 -5 -1 -3 -4 -3 -3 -2 -3 -0 0 1 1 0 -1 -0 -1 -5 -10
4 4 6 7 6 6 5 6 5 5 3 4 -1 -2 -4 -4 -6 -1 -2 -2 -2 -15 -2 -1 2 3 3 1 -0 -1 -2 -2 -4 -3 -1 -0 -0 -0 -0 -0 -0 -1 -1
3 8 8 7 7 7 6 6 6 5 4 2 1 -2 -3 -2 -3 -3 -2 -1 0 1 -7 -8 -9 -7 -5 -2 0 -0 -1 -2 -4 -2 -0 0 0 -0 0 -0 -0 -1 -1
7 6 7 6 7 7 6 6 6 5 4 2 0 -1 -2 -2 -1 -0 -1 -1 1 2 1 -0 -1 -3 -4 -5 -3 -5 -6 -11 -9 -5 -1 -0 -0 -0 -1 -1 -1 -1 -1
5 4 8 8 7 7 7 6 6 5 5 3 1 -0 -1 -1 -1 -2 -2 -3 -0 -2 -1 -1 -5 -5 -6 -6 -7 -7 -9 -13 -12 -2 -1 -1 -1 -1 -1 -1 -2 -2 -2
3 2 5 7 8 8 7 7 7 6 5 4 2 -2 -1 1 1 0 -1 -2 -2 -3 -4 -3 -3 -4 -4 -5 -6 -6 -6 -6 -6 -2 -2 -1 -2 -2 -2 -2 -3 -3 -3
6 7 8 8 9 8 8 7 7 6 5 4 2 -1 1 2 2 2 -0 -2 -2 -3 -3 -3 -3 -3 -4 -4 -4 -4 -4 -5 -5 -5 -7 -2 -2 -2 -2 -3 -2 -2 -2
7 7 7 8 9 8 9 7 7 7 6 5 4 2 3 3 3 2 0 -1 -2 -2 -2 -3 -2 -4 -4 -4 -3 -3 -3 -3 -4 -4 -8 -10 -4 -3 -4 -4 -4 -4 -4
5 6 6 6 8 9 8 7 7 7 6 5 4 2 3 3 3 2 1 -0 -1 -1 -1 -1 -2 -4 -4 -3 -2 -2 -3 -3 -4 -4 -6 -10 -11 -10 -5 -4 -4 -4 -5
6 7 8 7 6 7 7 7 7 7 5 5 4 3 2 3 3 2 1 1 -0 -1 -2 -4 -4 -3 -3 -2 -2 -2 -3 -4 -4 -5 -5 -10 -13 -15 -5 -6 -6 -6 -6
7 5 6 5 6 6 8 8 8 7 5 5 4 4 3 2 3 1 1 0 -1 -1 -3 -4 -3 -3 -2 -2 -3 -4 -4 -4 -4 -5 -7 -11 -15 -18 -12 -7 -8 -6 -6
7 4 3 4 7 8 9 8 8 7 5 6 5 4 3 2 2 1 0 0 -2 -4 -4 -5 -5 -4 -4 -4 -5 -4 -5 -5 -6 -7 -8 -9 -13 -17 -20 -14 -9 -7 -7
8 7 7 7 8 8 8 8 8 6 6 6 5 5 1 2 2 1 1 -2 -3 -4 -4 -5 -5 -5 -5 -5 -5 -5 -6 -6 -6 -7 -8 -11 -10 -12 -15 -21 -23 -14 -8
8 9 9 9 8 8 8 8 7 6 6 5 5 3 2 3 2 2 -0 -3 -2 -3 -4 -5 -5 -5 -7 -7 -6 -6 -7 -7 -7 -8 -8 -9 -10 -11 -14 -21 -25 -24 -16
10 10 10 9 9 9 8 7 6 5 4 6 5 2 2 2 2 0 -1 -2 -3 -3 -4 -4 -5 -6 -7 -8 -8 -8 -8 -7 -8 -9 -9 -10 -10 -10 -13 -16 -19 -24 -22
10 10 9 9 9 8 7 6 6 5 6 5 3 2 2 2 0 -0 -1 -2 -3 -3 -4 -4 -5 -6 -7 -8 -8 -8 -8 -8 -8 -9 -9 -9 -10 -11 -13 -15 -18 -20 -21
9 10 8 8 8 8 6 6 6 6 4 3 2 2 1 1 -0 0 -1 -2 -3 -3 -4 -4 -5 -6 -7 -7 -8 -8 -8 -8 -8 -8 -9 -11 -11 -11 -14 -16 -16 -15 -15
9 9 8 8 8 7 6 6 5 4 3 2 2 1 -0 -0 -0 -0 -1 -2 -3 -3 -3 -5 -6 -6 -6 -7 -7 -8 -9 -9 -9 -8 -9 -10 -11 -16 -16 -15 -14 -12 -13
9 8 8 7 7 6 5 5 3 2 2 2 0 0 0 0 0 -0 -1 -2 -2 -3 -3 -4 -4 -5 -6 -6 -6 -7 -8 -8 -8 -8 -9 -11 -14 -15 -15 -13 -12 -12 -12
8 7 7 7 5 5 4 3 2 2 2 1 0 -0 -1 -0 -1 -2 -2 -3 -2 -3 -3 -3 -4 -4 -5 -5 -5 -6 -7 -7 -8 -8 -9 -10 -11 -14 -13 -12 -12 -13 -12
7 7 6 6 4 3 2 2 1 1 1 0 -1 -2 -2 -2 -2 -3 -3 -4 -4 -5 -5 -5 -5 -5 -6 -6 -5 -5 -6 -5 -7 -9 -8 -10 -12 -14 -12 -12 -13 -12 -12
5 5 4 3 3 2 1 1 1 0 -1 -1 -2 -2 -4 -5 -6 -5 -5 -5 -6 -6 -6 -6 -5 -5 -5 -5 -6 -7 -5 -5 -5 -8 -9 -11 -13 -13 -12 -13 -12 -12 -12
2 1 1 1 1 1 -1 -2 -4 -6 -8 -9 -11 -10 -8 -6 -6 -6 -6 -6 -6 -6 -6 -5 -5 -5 -5 -5 -7 -6 -5 -5 -6 -8 -9 -10 -12 -13 -13 -11 -11 -12 -11
0 0 -0 -1 -2 -1 -3 -4 -5 -6 -8 -14 -14 -11 -8 -8 -8 -6 -6 -6 -6 -6 -6 -5 -5 -6 -6 -6 -7 -6 -6 -6 -7 -8 -9 -10 -13 -11 -11 -12 -12 -12 -12
-0 -1 -2 -2 -4 -4 -5 -6 -8 -12 -13 -18 -28 -31 -30 -30 -30 -31 -28 -22 -21 -18 -13 -10 -7 -6 -7 -8 -7 -5 -6 -6 -6 -8 -10 -11 -12 -11 -11 -12 -12 -13 -11
-2 -5 -6 -6 -6 -6 -5 -11 -18 -23 -31 -33 -35 -36 -39 -38 -38 -36 -31 -21 -15 -19 -15 -14 -14 -13 -8 -6 -7 -6 -5 -6 -7 -8 -9 -11 -12 -11 -10 -11 -12 -11 -12

GFSMA_850_dewp_063.txt.gz
Dewpoint
0 1 0 0 3 4 5 5 5 5 3 -1 -2 -3 -5 -6 -5 -2 -1 -2 -7 -6 1 -1 -10 -11 -9 -5 -6 -6 -6 -8 -9 -12 -12 -10 -3 0 0 1 1 -1 -6
3 1 -0 -1 3 5 5 5 5 5 4 3 -2 -3 -3 -4 -4 -2 -2 -2 -2 -3 -8 -7 -7 -8 -6 -6 -5 -5 -4 -4 -7 -10 -12 -9 -1 0 1 0 0 0 0
4 -0 -1 4 6 6 6 6 5 5 5 4 1 -2 -2 -2 -5 -3 -2 -1 -2 -1 -0 -2 -3 -3 -7 -5 -3 -1 -2 -3 -7 -10 -5 -0 0 0 0 -0 -0 -1 -0
-0 -0 5 7 7 7 7 6 6 5 5 4 2 1 -2 -2 -2 -2 -0 -1 -2 0 1 0 -0 -1 -4 -5 -7 -8 -7 -11 -13 -13 -6 0 0 0 -0 -1 -1 -1 -1
0 6 6 7 7 7 7 6 6 6 5 4 3 2 1 -1 -1 -0 0 -2 -2 -1 -1 -2 -1 -4 -4 -5 -5 -6 -6 -7 -9 -10 -8 -11 -0 -0 -1 -1 -1 -2 -2
2 5 7 5 7 7 7 6 6 6 5 5 4 2 0 -2 -2 2 2 0 -2 -1 -1 -3 -4 -4 -3 -4 -5 -5 -5 -5 -5 -6 -6 -9 -15 -6 -2 -2 -2 -2 -2
6 4 1 4 6 6 7 7 7 7 6 5 5 2 -1 -2 1 2 2 1 0 -1 -3 -3 -3 -3 -3 -3 -4 -4 -4 -4 -4 -3 -5 -6 -9 -8 -3 -3 -3 -3 -3
7 4 2 4 6 8 8 8 8 7 7 6 5 3 0 1 2 2 2 2 0 -1 -2 -2 -2 -3 -2 -4 -4 -4 -3 -3 -2 -3 -4 -5 -6 -12 -12 -4 -4 -4 -4
6 5 4 5 6 8 8 8 7 7 6 7 5 4 3 3 3 3 2 2 1 -1 -1 -1 -2 -3 -3 -3 -4 -3 -2 -2 -3 -3 -4 -6 -7 -11 -16 -5 -4 -4 -5
5 6 6 6 7 7 7 7 7 8 7 7 6 4 3 3 3 2 2 2 1 -0 -0 -0 -2 -4 -3 -3 -3 -3 -2 -2 -2 -5 -5 -6 -7 -11 -12 -11 -7 -5 -5
6 6 6 7 7 8 8 8 7 7 8 7 6 5 5 4 4 3 2 2 1 1 0 -1 -2 -3 -3 -3 -3 -2 -3 -2 -6 -7 -5 -7 -9 -10 -13 -14 -16 -13 -6
7 8 8 8 7 8 8 7 8 9 9 8 7 6 5 5 4 3 2 2 1 2 -3 -3 -3 -4 -3 -3 -2 -3 -4 -5 -6 -6 -7 -7 -8 -9 -11 -13 -9 -9 -7
6 6 7 7 7 6 6 8 9 9 8 8 6 6 6 5 4 3 2 2 1 2 1 -0 -3 -4 -5 -4 -5 -4 -6 -5 -5 -6 -7 -7 -7 -9 -11 -13 -12 -14 -14
7 7 8 8 8 7 8 8 8 8 8 7 6 6 6 6 4 2 3 3 1 -1 -2 -3 -3 -4 -5 -5 -7 -7 -5 -6 -6 -7 -7 -7 -9 -9 -11 -13 -12 -12 -15
8 9 8 9 9 9 9 9 8 8 7 6 6 6 5 5 3 3 2 2 0 -0 -1 -2 -3 -4 -5 -5 -7 -8 -8 -8 -8 -8 -8 -8 -8 -8 -10 -13 -11 -13 -17
9 9 8 9 9 9 9 8 8 7 6 5 5 5 4 3 2 2 2 1 0 -1 -2 -3 -3 -4 -4 -6 -7 -7 -7 -8 -8 -8 -8 -8 -8 -9 -9 -12 -14 -16 -16
8 8 9 9 9 8 7 8 7 6 6 6 5 4 3 2 1 1 0 0 0 -1 -2 -3 -3 -3 -4 -5 -6 -6 -7 -7 -8 -8 -8 -9 -9 -9 -9 -12 -16 -16 -15
9 9 9 9 8 8 7 7 6 6 6 4 3 2 2 1 1 0 0 0 -2 -2 -2 -3 -3 -3 -4 -5 -4 -5 -5 -6 -6 -5 -6 -7 -8 -8 -11 -13 -15 -14 -13
9 9 8 8 7 7 7 6 5 5 4 3 2 2 1 1 0 -0 -1 -2 -3 -3 -3 -2 -2 -2 -3 -3 -3 -3 -4 -3 -4 -5 -6 -5 -8 -9 -11 -13 -12 -14 -12
8 8 8 7 8 7 6 5 4 3 2 2 2 1 0 -1 -2 -2 -2 -2 -3 -3 -3 -3 -4 -4 -4 -4 -4 -4 -5 -6 -7 -6 -6 -8 -7 -8 -10 -10 -13 -13 -12
8 8 7 7 6 5 4 3 3 2 2 1 1 -1 -2 -2 -2 -3 -4 -5 -5 -5 -5 -5 -5 -5 -5 -5 -5 -5 -5 -5 -5 -4 -5 -5 -6 -7 -9 -11 -13 -12 -12
7 6 6 5 5 4 3 2 2 1 1 -0 -2 -4 -5 -6 -7 -9 -8 -7 -6 -6 -6 -5 -5 -5 -5 -5 -4 -4 -5 -4 -4 -5 -5 -5 -9 -9 -10 -12 -13 -13 -13
5 5 3 2 2 2 1 1 -0 -3 -6 -8 -10 -12 -13 -13 -12 -11 -11 -11 -10 -8 -7 -6 -7 -7 -7 -5 -5 -5 -5 -6 -6 -5 -5 -6 -8 -9 -10 -11 -14 -11 -11
2 0 0 1 0 -1 -2 -3 -5 -7 -9 -10 -11 -12 -14 -20 -26 -32 -36 -38 -38 -38 -38 -35 -30 -25 -18 -11 -8 -6 -5 -7 -6 -6 -6 -7 -9 -9 -10 -14 -12 -11 -12
-1 -1 -1 -1 -1 -2 -3 -4 -6 -7 -9 -11 -22 -30 -33 -37 -38 -39 -39 -39 -39 -38 -23 -16 -15 -17 -18 -18 -20 -15 -7 -6 -5 -6 -6 -7 -8 -9 -12 -13 -11 -11 -12
-1 -1 -2 -3 -4 -4 -6 -9 -9 -10 -23 -30 -33 -37 -38 -38 -38 -37 -36 -28 -22 -16 -11 -11 -12 -12 -14 -19 -12 -11 -10 -7 -5 -6 -6 -6 -8 -8 -12 -12 -11 -11 -13

GFSMA_850_dewp_066.txt.gz
Dewpoint
2 1 2 3 3 4 4 4 5 4 1 -2 -5 -5 -5 -5 -4 -1 -2 -2 -3 -6 -7 -4 0 -3 -8 -10 -10 -9 -8 -9 -10 -13 -14 -11 -5 -3 -2 0 -0 -0 -0
-0 1 0 1 3 4 4 5 5 5 3 0 -3 -3 -3 -3 -3 -2 -1 -1 -1 -1 -1 -1 -3 -4 -4 -6 -5 -7 -6 -5 -8 -13 -15 -12 -4 0 -0 -0 -0 -0 -0
1 -0 0 1 3 4 4 5 5 5 5 5 1 -2 -3 -2 -3 -2 -1 -1 -2 -1 0 -2 -1 -1 -1 -3 -5 -6 -8 -6 -10 -12 -13 -9 -3 0 0 -0 -0 -0 -1
3 1 1 4 4 4 5 6 5 6 5 5 3 1 -1 -2 -2 -2 -0 -1 -1 -1 -1 0 -1 -1 -2 -5 -6 -6 -8 -9 -7 -9 -10 -7 -4 -0 -0 -1 -1 -1 -1
3 2 5 5 4 4 6 7 6 6 6 5 4 4 4 4 -2 -1 0 0 -1 -2 -2 -1 -1 -3 -4 -5 -4 -5 -6 -6 -6 -7 -7 -7 -8 -9 -7 -3 -1 -1 -1
2 3 3 2 1 6 7 7 6 6 6 6 5 4 4 3 -0 -2 1 2 1 -1 -1 -2 -3 -4 -3 -3 -3 -4 -5 -5 -5 -4 -5 -6 -8 -11 -14 -16 -2 -2 -2
2 1 -1 1 4 4 5 6 7 6 6 6 5 4 4 2 0 -2 2 2 2 1 0 -1 -2 -2 -2 -3 -3 -4 -5 -5 -4 -3 -2 -4 -5 -6 -10 -16 -13 -3 -3
6 2 0 2 0 2 7 7 7 7 7 6 6 4 3 2 0 -1 1 2 2 2 0 -1 -2 -3 -2 -3 -3 -4 -4 -4 -4 -1 -3 -3 -5 -7 -10 -14 -15 -6 -4
4 5 4 4 2 5 6 6 7 7 8 8 6 5 3 3 2 1 1 2 3 2 1 -0 -1 -1 -1 -2 -3 -3 -3 -4 -3 -3 -3 -3 -7 -9 -11 -12 -15 -16 -16
2 3 4 3 4 5 5 5 7 8 8 8 7 6 6 5 4 3 3 3 3 2 1 -0 -1 -1 -1 -2 -3 -3 -3 -3 -3 -3 -3 -5 -8 -9 -11 -11 -12 -15 -15
4 4 5 4 3 5 6 6 7 8 8 8 8 8 7 7 5 4 4 4 3 2 1 0 1 -0 -0 -1 -2 -3 -3 -3 -3 -3 -3 -6 -6 -7 -9 -10 -10 -12 -14
2 3 4 5 5 6 6 6 7 8 8 8 8 8 7 7 6 5 5 3 3 2 2 0 0 0 -1 -1 -3 -2 -3 -3 -3 -4 -4 -6 -6 -7 -8 -8 -9 -11 -12
5 5 6 6 7 8 8 8 8 9 8 8 8 8 7 6 5 4 4 4 3 3 3 3 2 2 1 -4 -4 -3 -3 -3 -4 -4 -5 -5 -6 -7 -8 -8 -8 -10 -13
6 5 6 7 8 8 8 8 9 8 8 9 8 8 6 6 5 5 4 4 3 3 3 3 2 -2 -2 -3 -4 -5 -5 -5 -4 -5 -5 -5 -6 -8 -8 -8 -8 -10 -12
6 6 6 7 8 8 8 8 8 8 8 8 7 6 6 6 6 5 4 3 3 2 1 1 -1 -2 -3 -4 -5 -5 -5 -7 -7 -7 -7 -7 -8 -8 -8 -8 -9 -9 -12
7 8 7 8 8 8 9 8 8 7 8 8 6 6 6 6 5 3 3 2 2 1 1 -0 -1 -2 -2 -3 -3 -4 -5 -7 -8 -7 -7 -8 -8 -8 -8 -8 -9 -9 -12
8 5 7 6 8 8 9 8 8 7 7 7 6 5 5 5 3 2 2 1 0 0 0 -0 -2 -2 -3 -3 -3 -3 -3 -4 -5 -5 -6 -6 -6 -6 -7 -7 -6 -9 -12
7 9 7 7 10 9 8 8 7 7 7 6 5 5 4 3 2 2 1 1 1 -0 -1 -3 -3 -3 -3 -3 -3 -3 -3 -3 -4 -4 -4 -4 -5 -4 -5 -6 -7 -9 -11
5 6 9 9 9 8 8 7 7 7 6 5 4 4 2 2 2 1 -0 -0 -1 -2 -2 -3 -3 -3 -4 -4 -3 -3 -4 -3 -3 -4 -5 -5 -6 -5 -4 -6 -9 -6 -13
8 10 9 9 8 8 7 7 6 6 5 4 3 2 1 1 -0 -2 -2 -2 -2 -2 -3 -4 -5 -5 -5 -5 -5 -5 -5 -5 -5 -5 -5 -6 -5 -4 -5 -5 -6 -11 -11
9 8 8 8 8 8 7 6 5 4 3 2 2 1 0 -1 -2 -2 -3 -4 -4 -4 -5 -5 -5 -6 -6 -6 -6 -6 -5 -5 -6 -7 -4 -6 -4 -5 -5 -5 -6 -9 -10
8 8 8 7 7 6 5 4 4 3 2 1 1 0 -2 -4 -4 -5 -7 -8 -8 -7 -7 -8 -8 -11 -18 -24 -25 -18 -9 -7 -6 -6 -6 -8 -8 -8 -6 -6 -8 -11 -11
7 7 6 6 5 4 4 3 2 1 1 1 -2 -8 -11 -13 -15 -16 -16 -16 -20 -28 -35 -37 -37 -36 -29 -22 -21 -22 -17 -11 -8 -7 -5 -6 -9 -7 -5 -6 -10 -10 -11
6 5 5 4 3 3 2 1 1 -1 -4 -9 -12 -14 -15 -17 -21 -32 -36 -38 -39 -39 -39 -37 -28 -21 -15 -15 -13 -12 -13 -14 -16 -18 -16 -6 -7 -6 -7 -9 -10 -10 -13
4 4 2 1 1 1 0 -1 -3 -7 -9 -10 -12 -15 -26 -33 -37 -38 -38 -38 -38 -37 -34 -31 -31 -28 -15 -11 -10 -9 -10 -8 -8 -8 -9 -6 -6 -5 -7 -8 -9 -12 -11
1 0 -0 -1 -1 -2 -2 -3 -5 -7 -10 -13 -26 -30 -36 -37 -38 -38 -38 -37 -36 -36 -36 -35 -31 -27 -20 -14 -10 -8 -8 -9 -9 -9 -8 -6 -6 -6 -7 -7 -9 -12 -11

GFSMA_850_dewp_069.txt.gz
Dewpoint
3 3 3 3 3 3 3 2 -1 -2 -3 -4 -5 -5 -4 -4 -2 -1 -1 -1 -2 -2 -2 -2 -4 -4 -5 -6 -5 -5 -7 -9 -10 -12 -15 -14 -9 -9 -9 -6 -1 -1 -2
3 3 3 3 4 4 4 4 4 4 -1 -3 -3 -3 -4 -4 -3 -1 -1 -1 -1 -2 -1 -1 -1 -1 -1 -3 -4 -5 -6 -8 -10 -11 -12 -14 -9 -3 -6 -9 -8 -3 -1
2 3 3 3 3 3 4 4 5 5 2 1 -2 -3 -3 -2 -2 -2 -1 -0 -1 -2 -1 -1 -1 -1 -1 -2 -4 -6 -5 -7 -8 -8 -9 -10 -8 -8 -10 -11 -12 -5 -2
1 1 2 3 0 2 4 4 5 5 5 5 4 1 -2 -2 -2 -1 -1 0 0 -1 -1 -1 -0 -1 -2 -3 -5 -5 -4 -5 -6 -7 -7 -8 -8 -10 -13 -15 -16 -9 -2
1 0 1 1 -1 3 5 5 5 5 6 5 4 3 3 4 3 -2 -2 -0 0 0 -1 -1 -1 -2 -2 -4 -4 -4 -4 -5 -5 -6 -6 -8 -9 -10 -12 -15 -18 -20 -7
2 2 3 3 4 4 4 5 6 6 6 6 5 4 3 3 3 2 0 0 1 1 -0 -0 -1 -2 -3 -3 -3 -4 -4 -5 -5 -5 -5 -7 -7 -7 -9 -13 -16 -22 -22
3 3 4 5 5 4 1 3 6 7 6 6 5 4 4 3 2 2 -0 -1 1 2 2 0 0 -1 -2 -2 -2 -5 -4 -4 -4 -3 -3 -5 -5 -5 -9 -13 -16 -18 -19
2 2 5 6 3 2 1 3 6 7 7 6 6 5 5 3 3 2 1 -1 -0 2 2 2 1 -0 -1 -1 -1 -3 -5 -4 -3 -1 -3 -4 -4 -5 -8 -11 -13 -14 -14
2 3 5 4 4 2 3 4 6 7 7 7 7 6 5 4 4 4 2 1 -0 1 2 2 1 0 -1 -2 -1 -1 -2 -3 -3 -4 -2 -3 -4 -4 -7 -8 -9 -11 -11
3 5 6 6 5 4 5 3 5 7 8 8 8 8 7 5 6 4 4 4 1 1 3 3 2 1 -1 -1 -1 -1 -2 -2 -2 -3 -3 -3 -3 -3 -6 -7 -8 -9 -10
4 3 3 3 3 4 6 6 6 6 6 7 8 9 8 7 6 5 5 4 3 3 4 2 2 2 0 -0 -0 -0 -1 -1 -1 -2 -3 -3 -2 -3 -5 -6 -8 -9 -9
3 2 -0 0 2 5 6 6 7 7 7 8 8 8 8 8 7 7 6 6 4 4 4 3 2 2 1 1 0 0 -0 -2 -2 -2 -2 -2 -2 -3 -5 -6 -7 -8 -8
2 0 -2 -1 1 3 5 7 7 8 8 8 8 8 8 8 7 7 6 6 5 5 4 3 3 3 2 0 1 -0 -3 -3 -4 -2 -2 -2 -3 -4 -5 -6 -7 -8 -7
-0 -2 -2 0 3 5 6 8 8 8 8 9 9 9 8 8 7 6 6 5 5 4 4 4 3 2 3 0 -1 -2 -3 -4 -4 -5 -3 -3 -4 -4 -5 -6 -6 -7 -7
4 5 5 5 6 6 7 7 8 8 9 9 8 8 8 6 5 6 6 6 5 3 3 2 1 1 -2 -2 -2 -2 -3 -4 -5 -5 -6 -6 -7 -6 -6 -6 -6 -6 -7
8 8 8 8 8 7 7 8 9 8 8 8 8 7 7 6 6 6 5 5 3 3 2 2 1 -1 -1 -2 -3 -3 -3 -4 -3 -3 -3 -4 -5 -5 -6 -5 -5 -5 -5
8 9 9 7 8 8 8 8 9 8 7 6 6 7 6 5 5 5 4 3 2 2 1 1 0 -1 -3 -3 -4 -5 -5 -4 -3 -3 -3 -3 -4 -4 -4 -5 -4 -3 -5
8 5 6 5 8 9 8 8 9 9 8 7 6 6 6 5 4 4 3 2 2 1 1 0 -1 -2 -3 -4 -5 -5 -6 -6 -5 -5 -4 -4 -5 -5 -4 -4 -5 -4 -5
8 4 3 7 9 9 8 9 9 9 7 7 7 6 5 4 3 2 2 2 1 1 0 -1 -2 -3 -3 -4 -6 -8 -7 -7 -6 -6 -6 -6 -6 -5 -5 -5 -6 -6 -4
10 7 6 6 6 7 9 9 8 8 7 7 5 5 4 3 2 2 2 1 -1 -3 -3 -3 -4 -5 -7 -10 -10 -11 -15 -21 -25 -25 -22 -12 -7 -6 -7 -5 -6 -4 -4
9 8 9 8 8 9 9 9 8 7 7 5 4 4 2 2 2 1 -0 -3 -5 -6 -8 -8 -10 -13 -16 -22 -33 -37 -34 -31 -27 -24 -24 -21 -15 -10 -8 -8 -8 -8 -5
7 8 8 9 8 8 8 8 7 6 5 4 4 2 2 1 1 -1 -3 -6 -9 -13 -13 -15 -24 -36 -38 -37 -30 -21 -17 -17 -14 -17 -15 -23 -23 -12 -9 -6 -8 -7 -5
9 9 8 8 8 8 7 7 6 5 4 3 2 1 1 0 -2 -7 -11 -15 -16 -20 -32 -38 -38 -37 -34 -33 -29 -21 -12 -10 -9 -12 -13 -13 -16 -21 -24 -8 -8 -6 -6
9 9 8 8 7 7 6 5 4 3 2 1 1 1 -1 -6 -11 -14 -16 -25 -35 -38 -38 -37 -36 -38 -37 -35 -30 -16 -11 -10 -11 -11 -10 -10 -11 -9 -8 -9 -7 -6 -9
8 8 7 6 6 5 4 3 2 2 1 1 -1 -7 -10 -12 -16 -28 -36 -37 -38 -37 -37 -37 -38 -39 -37 -35 -25 -17 -13 -9 -9 -11 -10 -9 -11 -10 -8 -7 -6 -7 -10
7 6 6 5 4 3 2 1 1 0 -2 -6 -9 -10 -14 -25 -33 -37 -37 -37 -37 -35 -36 -37 -37 -37 -37 -34 -21 -12 -10 -8 -8 -9 -10 -8 -10 -9 -7 -8 -6 -8 -8

GFSMA_850_dewp_075.txt.gz
Dewpoint
-2 -2 -3 3 2 2 1 -0 0 -2 -3 -5 -4 -4 -2 -2 -1 -1 -2 -3 -2 -1 -1 -2 -3 -4 -4 -4 -5 -5 -5 -7 -8 -8 -9 -10 -12 -13 -17 -21 -25 -30 -32
-3 -6 -2 1 2 1 0 -2 -2 -3 -4 -4 -4 -4 -3 -1 -1 -1 -1 -2 -2 -0 2 -0 -2 -2 -3 -3 -4 -4 -4 -5 -6 -7 -8 -8 -10 -13 -15 -20 -25 -26 -28
-3 -7 -7 -3 -3 -1 -3 -4 -4 -4 -4 -4 -4 -4 -3 -2 -1 -1 -0 -0 -1 -1 0 0 -1 -1 -1 -2 -3 -3 -4 -4 -5 -6 -6 -7 -9 -11 -13 -16 -20 -24 -25
-6 -6 -5 -1 -0 -3 -2 -1 -3 -3 -3 -3 -3 -3 -3 -2 -2 -1 -1 -0 -0 -0 -1 0 0 -1 -1 -1 -2 -2 -3 -4 -4 -5 -6 -6 -8 -10 -10 -12 -15 -19 -22
-5 2 2 3 3 4 5 3 3 3 0 -0 -2 -2 -3 -3 -2 -2 -2 -1 -0 0 -0 -1 0 0 -1 -1 -1 -2 -2 -3 -3 -4 -5 -5 -5 -6 -6 -7 -8 -12 -14
4 4 4 4 5 5 5 5 5 5 5 5 4 3 1 0 1 2 0 -2 -1 0 0 0 -0 0 0 -1 -2 -2 -2 -1 -1 -2 -3 -4 -4 -4 -4 -5 -5 -6 -8
5 5 4 5 5 4 5 5 5 5 5 5 5 5 4 3 3 3 3 2 -0 -1 -0 1 1 0 1 -0 -1 -2 -2 -0 1 -1 -1 -1 -2 -3 -3 -4 -4 -4 -5
5 4 5 4 2 3 5 6 6 6 6 6 6 6 6 6 5 5 5 4 3 1 -1 -0 2 1 1 0 -0 -1 -2 -2 -1 2 3 2 1 0 -1 -2 -3 -3 -4
4 4 3 2 2 4 5 6 6 6 6 7 7 7 6 6 6 6 6 5 6 4 2 0 -1 -0 1 2 2 1 -1 -1 -2 -2 1 3 3 3 2 1 -0 -2 -3
5 4 3 3 4 3 4 4 4 5 6 7 7 7 8 7 7 7 7 7 7 7 5 3 4 2 -0 1 4 3 -0 1 -1 -2 -0 -2 1 3 2 2 1 1 -0
5 4 4 4 5 4 4 3 5 6 6 7 7 6 7 8 8 8 7 7 7 7 6 6 5 5 0 2 4 3 2 1 -1 -0 -0 -1 -0 -1 1 2 1 1 1
5 4 4 4 4 4 3 4 3 4 5 4 4 7 8 8 8 8 7 8 8 6 6 6 5 3 0 4 3 3 2 2 1 0 0 1 1 -1 -3 -1 1 2 1
4 4 6 5 4 3 3 3 2 3 4 5 5 6 7 8 8 8 8 8 7 6 6 6 4 4 4 2 2 3 2 2 1 0 -0 -1 -2 -3 -4 -4 -3 0 1
4 5 6 5 4 4 3 2 2 1 1 3 3 5 7 8 8 9 8 8 7 7 6 5 3 4 4 4 3 2 0 -1 -2 -2 -2 -3 -3 -4 -5 -5 -5 -5 -4
4 4 3 2 3 2 2 3 3 2 6 7 7 7 7 6 8 8 8 7 7 6 5 4 4 4 3 2 2 1 0 -1 -2 -5 -6 -8 -9 -7 -7 -6 -5 -5 -5
4 3 3 3 4 4 3 2 2 2 7 7 7 6 6 6 8 8 7 7 6 6 5 4 4 4 3 2 2 1 0 -2 -5 -7 -10 -13 -14 -15 -14 -12 -10 -7 -6
4 3 3 3 4 4 2 2 3 7 7 8 6 5 7 8 8 8 7 6 6 5 5 4 4 3 2 2 1 0 -2 -8 -10 -16 -23 -30 -34 -36 -37 -37 -37 -34 -27
2 2 2 2 2 2 2 2 6 7 8 8 7 7 8 8 8 6 6 6 6 5 5 4 3 2 2 1 0 -4 -9 -14 -25 -34 -34 -34 -36 -37 -37 -38 -38 -35 -34
1 1 2 1 2 4 6 7 8 7 8 7 7 8 7 8 8 7 6 6 5 4 4 3 2 2 1 -2 -7 -12 -21 -34 -35 -33 -35 -34 -35 -35 -36 -36 -33 -28 -26
1 1 2 3 4 5 6 6 8 6 8 9 8 8 8 8 8 7 6 5 5 4 3 2 1 -0 -4 -10 -17 -29 -36 -34 -33 -34 -33 -33 -33 -35 -36 -33 -26 -22 -22
1 1 2 2 4 6 7 8 8 6 7 7 6 7 8 7 6 6 5 5 4 3 2 1 0 -5 -11 -19 -35 -36 -35 -35 -35 -33 -32 -31 -32 -34 -35 -29 -23 -19 -23
2 3 4 4 7 6 6 7 9 7 8 7 7 8 7 6 6 5 5 4 2 2 0 -1 -6 -14 -24 -36 -36 -36 -36 -35 -28 -29 -32 -32 -31 -32 -32 -24 -17 -17 -16
4 5 6 7 8 9 9 9 9 8 8 8 7 7 7 6 4 4 3 2 1 1 -1 -9 -17 -30 -36 -36 -36 -36 -36 -35 -34 -32 -31 -25 -29 -27 -13 -12 -16 -15 -15
7 8 8 9 8 9 9 9 8 8 8 7 6 5 5 4 3 3 1 1 -0 -5 -13 -21 -35 -36 -36 -36 -36 -37 -37 -36 -35 -33 -29 -15 -24 -12 -9 -8 -12 -14 -11
9 9 9 9 9 8 8 8 8 7 6 6 4 4 3 2 1 1 -0 -2 -9 -16 -28 -36 -37 -36 -36 -36 -37 -37 -37 -35 -32 -30 -35 -14 -12 -9 -9 -8 -8 -13 -15
9 8 8 8 8 8 8 8 7 6 5 4 3 2 1 0 -0 -1 -5 -13 -23 -33 -35 -35 -34 -34 -36 -37 -37 -37 -37 -36 -31 -23 -13 -15 -13 -10 -8 -9 -8 -8 -11